RH
100 100 98 90 84 81 76 76 76 79 88 80 88 94 95 86 78 69 70 63 63 84 71 61 62 53 52 52 58 64 59 63 72 64 56 49 43 40 41 60 68 64 80 77 72 68 56 40 37 31 36 46 45 42
100 100 100 98 92 83 81 77 75 76 81 89 83 91 99 95 83 73 77 76 62 76 76 62 68 64 65 63 61 66 56 62 65 64 59 55 45 49 42 44 45 57 58 67 60 59 45 41 41 44 44 46 43 44
90 100 100 100 100 93 85 81 78 76 77 84 87 90 98 99 88 73 75 71 76 83 82 73 75 65 64 62 63 64 66 58 59 66 68 64 46 55 50 50 42 42 48 51 42 42 48 50 48 44 42 46 48 48
90 95 95 100 100 100 92 85 82 81 78 82 92 91 94 96 90 80 75 68 75 85 78 78 66 67 65 65 63 64 63 62 64 75 72 70 60 49 53 48 46 43 46 49 52 42 47 47 50 50 49 48 47 47
97 97 97 94 99 100 100 93 87 83 82 79 90 94 92 91 91 83 75 70 72 76 82 85 70 70 69 66 66 64 66 72 81 76 81 73 74 62 63 69 71 52 47 49 45 44 44 48 53 49 48 47 48 49
95 98 98 98 96 98 100 100 96 89 84 81 95 95 93 91 89 85 91 69 78 73 87 94 77 73 71 68 69 71 74 79 83 80 84 81 72 68 84 81 56 50 42 42 50 45 48 54 48 44 49 50 48 49
99 98 98 98 99 94 96 100 100 97 88 84 89 98 94 99 92 85 81 68 67 72 85 90 98 78 74 73 81 84 77 86 84 84 84 83 79 76 86 90 57 46 53 54 48 48 51 48 52 50 50 47 46 43
95 99 99 99 99 99 95 93 100 100 93 88 94 100 99 100 94 90 84 82 78 74 84 98 98 87 75 87 89 87 90 89 87 88 87 85 85 89 94 75 56 50 60 54 48 49 47 56 55 54 49 49 48 49
90 97 99 99 99 100 99 89 95 100 100 93 98 100 100 96 91 89 84 83 81 82 96 99 90 91 81 88 88 88 90 95 89 91 91 89 91 97 75 70 63 62 61 57 55 56 56 56 57 51 46 43 42 43
94 90 94 96 96 98 100 99 95 100 100 100 100 99 100 98 90 81 80 88 95 92 93 97 94 95 88 92 91 92 91 96 98 89 89 93 91 75 72 68 65 65 58 58 62 63 62 53 47 41 40 47 48 51
95 87 87 92 91 95 98 100 97 96 100 99 99 99 100 90 80 92 96 98 96 92 95 94 93 97 85 93 91 85 96 93 95 92 95 95 96 79 70 63 62 61 59 54 53 55 47 45 47 45 46 45 48 48
90 91 81 89 93 94 97 99 100 98 100 93 91 98 95 96 100 99 99 97 94 94 98 98 95 90 90 86 92 92 96 89 94 89 88 88 86 72 71 56 58 61 57 56 46 51 47 45 48 52 53 51 48 45
95 85 83 88 90 92 96 99 99 99 100 94 95 100 99 100 98 98 98 99 100 98 99 98 98 92 89 89 95 93 94 93 89 92 86 89 79 67 66 70 70 61 54 51 49 45 44 42 41 46 48 41 46 50
96 84 73 79 84 88 89 97 98 100 94 99 99 98 98 98 96 92 91 90 89 96 94 93 99 94 92 94 93 95 90 86 97 94 91 92 76 69 70 68 59 52 50 54 44 39 42 45 48 43 46 47 50 57
94 93 85 83 79 85 91 97 97 100 100 100 100 98 98 89 98 97 97 98 99 85 88 96 97 90 100 98 96 96 98 97 90 88 91 92 76 71 66 55 52 49 47 47 45 51 50 49 56 55 44 42 46 54
88 98 95 97 97 98 98 98 98 100 100 100 99 99 96 95 100 100 98 92 94 84 94 91 99 99 98 95 100 95 92 94 86 92 94 83 73 67 63 57 53 48 50 50 49 50 51 52 54 52 50 53 55 60
84 91 90 96 99 99 98 100 97 100 99 99 98 99 95 94 89 97 93 85 78 79 96 95 97 91 98 100 100 91 93 86 95 96 90 75 70 63 59 56 56 56 57 54 54 52 52 48 56 67 79 52 50 54
100 99 100 100 99 99 100 100 100 99 98 99 98 96 91 90 89 94 96 86 82 96 94 92 93 100 96 94 96 92 95 97 96 85 76 73 69 61 56 58 51 51 52 48 48 48 52 62 72 69 59 56 64 65
99 100 100 100 100 99 99 99 99 97 97 99 98 97 96 96 90 91 88 79 98 91 90 97 94 98 95 92 92 94 94 92 87 82 75 67 62 53 44 40 39 45 49 50 49 56 54 55 59 61 64 68 72 68
98 98 99 96 100 96 98 98 96 96 97 96 99 98 96 98 93 88 87 97 97 94 97 99 92 84 83 78 93 82 83 80 72 68 61 59 48 45 46 45 51 43 47 48 53 65 71 70 63 65 66 72 77 75
100 97 100 97 97 88 96 98 98 96 98 98 98 97 98 98 97 97 97 99 98 98 98 93 81 71 68 69 67 67 77 72 64 47 37 47 42 41 42 38 39 46 61 63 64 66 64 67 58 57 56 56 59 61
99 99 99 99 98 98 95 99 96 98 97 97 97 98 97 97 97 97 98 98 97 94 84 75 71 72 67 59 62 50 46 53 43 44 52 50 66 82 71 53 59 72 69 65 65 68 63 58 59 60 65 67 67 68
99 98 98 98 96 93 98 99 95 97 96 96 97 96 96 96 96 97 97 97 94 87 78 77 62 56 62 51 48 46 45 48 64 60 54 55 51 48 52 50 50 68 70 60 58 60 65 58 64 66 64 64 65 66
98 96 96 96 96 96 97 96 97 96 97 96 96 96 96 96 96 96 92 92 82 88 89 80 76 72 69 66 79 70 52 48 48 48 46 54 74 59 45 45 44 46 49 54 53 53 57 59 58 62 63 65 70 74
89 97 95 96 97 96 95 96 96 96 95 96 95 95 95 96 95 94 90 91 94 87 83 87 87 75 57 56 60 55 43 45 70 71 42 42 45 53 55 51 51 49 49 55 58 60 61 61 64 69 70 75 79 78
94 96 95 95 96 94 96 95 95 95 95 95 95 95 95 94 91 78 85 87 82 82 81 76 71 83 81 70 60 74 45 35 43 64 39 35 40 58 74 76 70 55 45 47 50 60 63 64 69 74 76 75 77 78
96 98 95 78 78 81 87 88 85 88 91 92 94 96 88 76 70 70 76 85 82 66 50 49 58 68 67 50 38 32 30 34 36 36 29 33 38 44 51 65 68 53 48 55 58 58 60 64 69 74 79 80 83 88
99 93 90 95 90 93 92 94 92 88 94 88 84 85 66 64 65 73 80 52 45 40 34 33 30 29 30 31 31 33 36 40 44 46 48 49 50 49 45 46 45 42 45 49 55 66 76 79 80 82 86 90 91 95
98 90 86 95 94 94 92 88 89 89 77 86 82 86 80 78 86 86 51 37 28 27 31 33 30 31 36 41 43 44 46 56 72 82 82 84 90 53 39 42 47 51 55 59 60 64 69 79 87 91 89 99 99 98
96 95 93 97 92 89 90 93 90 94 88 79 77 86 84 86 56 40 41 44 45 53 40 38 41 50 56 61 65 61 56 57 62 73 84 81 71 42 50 57 63 65 69 75 79 82 84 89 90 94 98 98 97 98
96 93 96 97 95 97 98 96 92 75 91 94 95 87 86 87 66 45 43 40 39 46 56 64 62 60 71 78 84 94 79 47 46 51 54 56 57 60 60 61 67 77 86 91 96 99 99 99 99 98 98 96 95 95
97 98 98 96 94 93 96 99 100 98 100 98 92 100 94 93 87 86 42 41 55 69 60 63 73 66 41 44 48 51 51 53 56 57 60 63 62 61 64 71 79 90 98 100 100 100 100 100 99 98 97 96 97 97
97 97 99 100 97 92 93 90 94 92 94 98 96 98 98 92 79 80 41 34 29 23 22 23 28 32 38 46 49 50 51 49 51 55 60 64 74 82 84 86 91 96 99 100 99 100 100 99 100 99 99 99 97 97
Wind_Speed
27 27 25 24 21 18 15 14 15 11 10 6 8 10 7 7 8 6 2 7 2 2 2 3 3 1 2 2 4 3 3 2 2 1 2 3 2 4 2 5 6 6 5 4 2 2 6 4 4 5 3 3 5 4
14 19 26 25 23 21 19 15 14 16 12 9 6 6 6 5 6 5 1 4 3 3 2 2 2 2 2 1 2 1 3 3 4 2 1 2 0 1 3 2 2 3 6 5 8 5 3 4 3 2 4 4 3 5
11 7 0 20 24 23 21 19 15 14 15 11 8 5 5 5 4 4 2 4 1 2 2 2 1 1 1 2 1 3 2 1 1 1 3 2 2 3 3 5 2 3 4 3 1 4 6 7 4 4 3 4 5 5
11 11 10 4 15 24 24 21 20 17 15 13 11 6 6 5 4 4 2 2 1 1 2 2 2 1 2 0 1 1 1 1 3 2 1 1 2 2 3 2 3 4 4 5 4 1 5 4 5 7 6 6 5 5
11 11 13 11 6 12 24 24 23 20 16 15 13 9 9 6 3 3 3 2 1 1 2 1 2 1 2 1 2 2 1 2 2 2 2 2 2 0 1 1 4 5 6 5 5 5 3 4 8 7 7 5 6 5
12 12 11 11 12 10 11 24 24 22 17 17 15 12 11 9 5 2 2 2 2 2 2 1 1 2 4 3 4 5 3 2 2 2 2 2 1 1 1 3 6 6 3 5 4 2 2 7 7 5 6 6 5 5
12 12 12 12 12 12 13 8 22 22 20 18 16 14 13 11 8 3 2 2 4 1 2 2 2 1 1 2 3 2 2 1 2 1 1 1 1 1 2 4 5 3 5 5 5 7 5 3 5 6 8 7 6 4
15 13 12 12 12 12 12 13 9 22 23 19 19 19 15 13 6 5 8 7 4 2 2 2 2 1 1 1 1 1 1 1 1 2 1 1 2 1 4 5 3 3 6 5 3 3 4 7 8 5 7 5 4 3
17 15 14 13 14 14 12 12 14 17 23 20 16 21 17 7 6 3 4 5 6 1 3 3 4 3 2 1 1 1 1 1 0 2 2 3 2 5 6 4 4 6 6 6 5 7 7 7 7 6 5 4 3 2
18 18 16 14 15 15 13 12 12 11 26 22 22 6 2 6 8 12 2 1 3 1 2 3 1 3 3 3 3 3 0 2 2 3 2 3 4 4 6 5 4 7 8 9 7 5 5 5 5 4 3 3 3 3
21 20 18 17 16 16 16 14 13 10 35 15 4 2 7 15 4 2 2 2 3 3 4 3 5 4 2 3 3 2 2 2 1 2 3 3 3 3 3 2 2 6 8 5 7 7 6 6 4 2 2 4 6 10
23 20 19 19 18 17 16 15 11 12 9 18 16 12 8 2 2 4 4 2 5 6 4 4 2 3 1 1 3 1 3 1 3 3 2 3 3 2 3 5 5 7 10 8 12 8 7 4 1 3 6 9 12 15
24 22 21 21 20 18 18 17 14 13 25 17 5 5 4 3 5 8 9 4 3 5 6 4 3 3 1 1 3 2 4 3 3 2 4 4 2 1 5 6 6 9 12 10 7 5 2 3 6 8 11 16 17 19
20 22 23 24 22 20 18 14 10 25 11 3 6 7 7 5 7 6 6 6 4 6 11 6 3 3 2 3 3 3 2 2 3 4 5 3 6 6 5 5 6 6 6 5 2 2 6 9 12 13 15 18 21 20
20 23 26 29 28 25 22 20 16 16 6 4 4 7 8 3 2 2 3 4 1 9 9 5 3 3 2 3 2 3 1 4 5 5 3 3 6 7 7 6 6 5 2 3 4 6 10 13 14 16 19 21 25 26
23 23 28 27 28 26 24 23 20 12 3 3 4 4 2 4 3 2 2 6 3 9 3 3 4 3 3 4 4 7 5 6 4 3 3 6 7 6 6 6 6 7 6 7 9 10 12 14 16 19 22 25 27 25
23 17 19 20 28 30 25 16 12 6 5 4 4 3 4 2 9 4 4 8 12 9 4 4 6 7 4 4 4 5 6 3 4 3 3 6 8 7 6 6 7 8 8 9 10 12 15 19 19 19 13 26 26 28
28 31 28 27 24 21 22 19 7 6 7 4 4 4 3 2 8 5 4 9 7 3 4 5 5 4 6 7 4 4 3 2 2 4 6 5 6 9 10 8 8 8 9 12 14 17 20 20 15 16 22 28 25 27
33 32 34 35 30 16 5 6 6 6 3 2 2 2 3 3 2 6 7 10 3 5 6 2 4 4 4 4 3 3 3 3 4 4 4 10 11 10 8 9 12 13 14 17 20 18 19 21 23 24 23 21 19 24
31 34 40 29 47 7 5 2 6 5 4 2 1 3 4 3 5 7 11 5 4 4 2 3 4 4 4 3 3 4 5 5 5 4 3 4 10 11 13 15 16 18 18 21 23 20 19 21 26 27 25 22 18 20
11 21 15 37 8 7 4 3 2 3 3 2 4 2 3 4 6 6 6 2 2 3 3 3 3 2 2 4 9 10 8 9 5 5 5 4 7 11 12 15 17 18 15 15 13 13 17 18 25 22 22 25 23 25
7 14 7 9 4 4 4 3 3 3 3 3 1 2 3 3 2 2 2 2 4 3 3 3 3 4 4 5 5 14 15 18 12 10 7 6 2 2 6 17 15 10 15 18 17 15 19 24 24 26 24 25 25 27
6 5 6 7 5 4 4 2 3 1 4 3 2 3 2 2 1 2 1 1 2 2 3 2 4 6 5 8 8 9 13 15 7 11 13 14 15 16 18 21 22 16 12 20 20 24 24 26 22 22 24 24 24 25
5 4 4 3 3 4 3 2 2 3 3 3 2 4 3 2 1 2 2 2 1 2 3 6 4 3 2 3 3 4 15 18 15 15 16 12 6 13 19 22 23 26 29 25 24 28 27 25 24 21 21 23 23 21
4 5 3 4 2 3 3 2 2 2 3 2 4 2 2 0 2 1 1 2 2 3 4 4 4 4 4 2 2 6 10 16 11 7 19 16 19 16 18 23 24 29 27 22 23 23 25 26 26 24 25 22 21 23
5 4 3 2 2 2 2 3 3 3 2 4 3 2 1 2 2 3 3 3 3 4 5 6 6 3 3 6 3 3 9 15 19 7 20 19 20 15 6 5 6 22 23 18 22 21 24 25 24 23 23 24 25 26
5 5 3 2 2 3 4 4 3 2 3 4 4 4 3 2 4 3 2 2 2 5 10 15 16 8 3 6 9 10 11 11 13 15 19 20 20 19 17 13 11 27 30 26 24 25 27 27 25 24 22 23 25 23
2 3 3 3 3 2 4 2 1 2 2 2 4 3 7 7 4 3 3 2 5 7 8 7 6 7 9 11 13 15 14 14 14 16 19 23 28 25 19 19 21 22 23 26 27 29 29 29 27 26 24 23 25 25
3 2 2 4 4 4 2 2 2 1 2 3 4 3 3 3 2 1 3 6 6 4 4 9 15 17 19 18 18 18 19 17 6 5 8 5 3 14 12 13 17 20 23 27 30 29 30 30 30 27 26 24 20 25
2 2 3 2 3 2 2 2 2 2 1 2 1 1 2 2 4 5 6 7 8 11 18 20 18 12 10 8 13 20 16 12 16 15 5 6 8 17 20 24 26 26 27 28 30 32 31 28 26 24 23 21 20 21
1 1 3 3 0 2 2 3 2 2 3 2 2 3 3 3 5 8 15 17 21 20 17 14 18 18 16 15 10 3 7 9 6 8 13 18 19 21 24 27 29 29 29 29 28 25 24 23 20 17 15 18 21 22
3 3 2 2 2 3 3 2 2 2 4 3 2 2 3 3 2 3 6 15 14 9 17 15 14 15 12 10 11 12 13 15 15 14 14 14 18 23 26 28 28 28 27 26 24 23 23 21 19 18 19 20 21 21
2 2 2 2 4 5 3 3 4 4 3 2 2 1 2 3 5 3 4 9 13 10 10 8 9 10 8 7 7 6 6 7 6 8 14 19 21 23 23 25 26 25 23 22 21 21 20 20 22 22 22 21 21 22
Wind_Direction
230 227 223 225 227 226 230 232 235 246 247 256 303 310 311 334 357 10 48 27 41 125 307 19 13 339 354 96 148 198 75 327 47 130 151 228 152 221 164 173 173 169 148 197 141 217 290 148 90 170 191 37 110 98
22 224 231 229 226 224 224 230 234 240 249 244 261 289 299 310 344 356 287 9 348 125 198 24 51 75 77 93 130 160 184 169 192 110 201 114 240 87 178 240 173 206 183 181 184 215 229 185 150 132 153 134 122 127
335 339 146 228 234 226 223 226 230 235 242 247 243 272 263 293 325 345 307 339 288 82 6 50 58 47 126 50 72 136 309 2 31 167 162 176 224 131 198 241 201 245 179 216 151 212 186 154 132 144 122 132 134 140
342 332 317 223 221 232 227 225 228 233 234 240 241 243 235 262 293 318 288 319 307 127 117 257 154 152 10 353 148 93 141 94 97 70 96 146 210 156 228 241 206 212 140 193 252 217 93 213 191 163 139 133 135 145
332 330 327 305 258 227 232 230 229 230 235 231 237 233 220 233 263 283 277 233 173 184 211 248 114 38 1 108 117 146 109 68 74 57 76 235 262 34 299 45 242 190 193 172 231 219 159 205 166 154 142 149 148 143
321 325 322 319 296 267 232 234 229 226 225 226 227 219 215 219 226 252 313 207 159 158 96 322 355 28 38 110 94 85 85 96 99 142 221 278 270 134 250 243 255 215 188 176 196 143 131 127 128 122 126 140 139 146
305 313 316 318 306 291 268 239 235 221 218 220 221 215 208 208 207 203 190 127 169 165 99 5 334 310 39 50 27 35 50 101 119 178 249 239 285 130 242 241 286 182 140 96 102 95 64 155 168 135 131 143 144 130
286 294 303 311 309 299 284 267 255 233 212 213 220 209 193 192 202 249 236 220 211 122 70 135 248 347 184 139 91 310 101 44 29 166 340 188 332 103 256 247 307 102 108 99 72 40 141 116 111 121 126 124 103 107
274 283 293 298 306 304 302 270 258 240 218 205 213 186 157 162 185 199 162 172 197 213 179 161 163 205 165 170 128 35 106 121 280 178 221 131 213 226 230 242 219 183 171 165 107 99 107 118 127 124 122 89 110 260
269 273 280 288 291 293 297 292 276 267 215 188 165 150 172 165 146 133 87 75 23 314 45 206 125 186 152 167 190 122 40 181 173 225 119 202 255 268 263 253 227 188 152 137 121 128 118 119 135 133 142 187 218 263
274 258 271 276 279 283 283 285 282 277 175 164 130 110 126 139 125 77 200 179 172 216 188 217 192 151 218 140 173 193 179 168 162 235 178 225 262 235 333 104 68 134 136 119 109 110 124 136 146 160 293 293 295 292
270 254 263 271 273 275 272 281 272 249 204 161 128 116 130 147 126 172 200 194 200 214 175 147 164 124 149 117 106 244 151 176 232 142 227 249 253 241 132 112 96 103 111 107 116 119 123 125 170 253 272 276 279 288
258 250 260 266 266 267 272 271 253 252 159 125 106 132 157 164 184 195 188 199 199 172 167 155 135 129 76 48 81 116 176 209 117 190 234 229 243 136 137 119 98 98 106 107 108 113 129 248 264 262 277 292 302 301
246 255 260 261 260 259 254 251 232 187 199 158 163 167 198 180 226 193 182 168 199 138 142 126 110 127 141 94 143 113 197 126 221 224 232 234 188 164 145 127 120 130 126 139 176 250 268 272 280 292 295 300 301 293
254 257 260 259 256 251 250 240 229 225 218 201 179 202 200 212 96 165 131 101 117 142 135 109 80 106 124 112 179 102 133 249 226 230 217 190 169 148 147 151 141 145 172 244 259 264 276 285 289 295 301 300 297 294
261 267 257 257 252 248 243 235 233 224 253 228 228 177 181 130 160 112 133 136 165 141 106 81 126 128 184 154 132 206 177 225 244 214 195 152 158 155 156 167 187 207 226 257 275 282 288 287 283 287 297 298 296 293
267 257 262 262 254 239 225 204 185 199 217 217 216 221 181 125 180 155 140 161 160 153 147 140 143 183 120 151 204 188 208 213 184 204 156 157 155 168 178 197 219 234 253 268 278 284 282 290 295 295 288 294 298 299
258 264 265 264 258 223 201 201 187 187 219 216 201 205 172 169 146 131 125 152 154 176 140 186 130 157 178 177 215 213 194 195 170 162 168 167 170 182 194 215 243 249 261 275 281 287 288 292 293 282 286 292 293 292
263 267 275 268 229 181 154 184 184 164 205 213 223 139 123 125 34 104 141 157 105 110 118 82 134 181 202 204 178 162 158 166 161 174 182 197 202 210 224 249 264 268 270 273 277 272 276 284 279 278 276 277 274 282
274 294 290 221 179 144 137 142 116 118 191 187 163 136 111 124 132 137 146 145 138 138 142 172 193 197 186 193 175 155 154 146 133 145 217 235 226 231 238 245 253 266 268 273 276 276 275 277 281 279 279 273 270 280
309 334 97 134 98 85 100 122 105 155 140 142 150 101 106 125 141 151 155 198 112 155 174 208 194 161 146 136 143 141 146 157 177 172 184 202 220 220 240 251 258 265 262 267 266 269 270 262 276 280 283 284 285 286
338 15 28 51 87 74 77 43 114 102 106 127 114 82 102 102 116 129 157 106 173 193 199 161 162 149 148 149 159 173 176 187 195 207 215 210 212 216 236 251 256 249 250 253 256 251 261 268 275 283 282 281 287 284
355 34 37 37 77 76 95 142 90 52 126 136 129 95 75 81 95 261 131 172 226 212 143 127 168 171 161 177 179 191 200 192 198 213 222 228 239 251 256 264 267 253 265 269 271 268 267 279 277 276 280 282 281 284
27 59 49 50 63 95 109 97 109 103 107 137 104 102 93 125 163 46 190 221 229 130 165 174 148 128 106 163 193 194 205 205 220 238 243 240 236 255 259 264 272 271 268 271 269 269 270 274 279 277 275 275 278 281
60 21 76 53 41 102 105 90 74 99 105 110 109 112 108 115 96 126 227 270 211 200 183 170 178 191 190 208 194 205 222 212 207 223 251 241 248 261 270 270 271 273 278 267 258 258 266 273 275 273 274 272 273 279
75 14 42 64 44 71 50 91 73 83 91 78 72 99 74 88 118 207 217 204 210 190 179 188 183 162 231 220 199 166 222 228 229 215 260 260 255 236 239 260 284 292 296 279 274 268 268 270 267 267 268 275 280 285
57 25 19 16 66 92 75 55 55 111 123 133 156 139 108 119 220 242 246 221 199 214 196 192 181 180 194 213 232 255 268 266 242 250 278 284 283 277 261 250 262 274 291 290 286 276 269 270 270 270 269 274 276 280
103 34 71 331 54 18 111 87 97 97 105 89 103 145 163 185 195 230 202 58 154 100 108 140 181 218 242 262 281 284 284 281 271 263 269 275 277 280 278 274 275 284 289 291 292 291 284 272 265 267 268 271 284 289
45 20 76 29 14 32 53 119 168 224 134 151 125 179 220 232 231 183 148 118 116 142 190 241 256 262 263 269 281 288 284 270 223 238 252 259 302 289 306 304 302 301 299 298 299 296 292 286 275 265 270 276 279 298
328 16 77 39 70 33 283 173 188 224 140 143 167 23 343 291 253 202 182 187 204 219 242 252 264 272 268 275 286 294 291 271 246 225 228 247 247 297 301 302 302 306 307 304 300 299 299 291 284 272 268 272 284 288
1 65 54 39 67 275 273 301 327 64 40 41 7 134 226 283 305 248 239 247 252 257 260 268 272 270 263 265 249 264 289 299 273 269 269 274 284 295 304 308 309 310 308 304 295 287 283 281 273 266 265 279 284 285
18 42 99 31 304 292 13 53 24 54 356 30 302 2 337 22 275 273 225 216 227 232 246 248 248 265 291 293 288 276 278 286 285 293 299 298 303 304 303 304 304 303 299 293 291 289 282 274 268 270 278 280 280 281
27 20 28 33 354 359 342 64 25 346 10 341 285 234 231 199 236 264 265 229 234 245 259 287 303 309 306 299 294 293 289 294 295 301 306 304 299 298 296 294 295 296 290 288 290 291 282 278 279 280 281 282 287 296